Погода в Сентельке

Россия / Алтайский край     51°12′10″N   83°45′06″E
темп.,
°C
ветер,
м/с
пор.,
м/с
влажн.,
%
обл.,
%
осадки,
мм/ч
давл.,
гПа
погр.,
м
5 марта, пт
пт501:00−13юв337531 0.0 102343
04:00−13юв437074 0.0 102146
07:00−11юв338087 0.1 101965
10:00−6юв3487100 0.1 1019191
13:00−1юз4137295 0.3 10211596
16:00−3зюз6147357 0.2 10251679
19:00−7ююз227629 0.2 102923
22:00−10ююв33800 0.0 103039
6 марта, сб
сб601:00−11юв338225 0.0 103048
04:00−12юв338252 0.0 102956
07:00−12юв437843 0.0 102957
10:00−8юв347568 0.0 1028164
13:00−1ююв396074 0.0 10241080
16:000ююв386558 0.0 10211148
19:00−5ююв237435 0.0 102127
22:00−8ююв337859 0.0 102131
7 марта, вс
вс701:00−9юв337641 0.0 102128
04:00−8юв227680 0.0 102129
07:00−7юв227790 0.0 102224
10:00−4юв1179100 0.0 102274
13:00−2ссз2284100 0.0 1023282
16:00−1с2289100 0.0 1023295
19:00−5ссв119596 0.0 102321
22:00−8юв228264 0.0 102421
8 марта, пн
пн801:00−8юв227682 0.0 102322
04:00−8юв337194 0.0 102227
07:00−8юв337096 0.0 102139
10:00−4юв347469 0.0 1019118
13:00+2юв288663 0.0 1016986
16:00+2ююв388074 0.0 1015924
19:00−2ююз127787 0.0 101724
22:00−5ююв228392 0.0 102024
9 марта, вт
вт901:00−7ююв228563 0.1 102323
04:00−7ююв228827 0.1 102522
07:00−8ююв118850 0.3 102821
10:00−5вюв118528 0.1 102867
13:00−1ссз218737 0.1 1026350
16:000с219575 0.1 1024221
19:00−4ссв019878 0.1 102321
22:00−5юв119083 0.1 102322